EA4TN Vaciamadrid ES current weather conditions

sailwx.info

Wind from 039 at 6 knots gusting 12

Air temperature 23.9° C
Dewpoint 11.2° C

Last reported at 2018-Jul-21 20:50 UTC.
Time now 2018-Jul-21 21:16 UTC

Location: N 40°21' W 003°31'.
View on Google Maps.

See reports from other nearby stations

  
Tides and Currents Weather Stations Pressure Air Temp Water Temp Dewpoint Dewpoint Depression Visibility Wind Speed Wind Dir Waves Ship Positions
date/time (UTC)wind fromknots sea level pressurealtimeterstation pressurevisibilityair tempwater tempwave heightnotes
2018-Jul-21 21:00 049 7 gusting 13 23.9
2018-Jul-21 20:50 039 6 gusting 12 23.9
2018-Jul-21 20:40 040 7 gusting 13 24.4
2018-Jul-21 20:30 046 6 gusting 13 24.4
2018-Jul-21 20:20 043 6 gusting 12 24.4
2018-Jul-21 20:10 051 6 gusting 13 25.0
2018-Jul-21 20:00 051 6 gusting 13 25.0
2018-Jul-21 19:50 046 6 gusting 13 25.0
2018-Jul-21 19:40 039 7 gusting 13 25.6
2018-Jul-21 19:30 043 7 gusting 13 25.6
2018-Jul-21 19:20 043 8 gusting 15 26.1
2018-Jul-21 19:10 030 6 gusting 13 26.7
2018-Jul-21 19:00 028 5 gusting 10 26.7
2018-Jul-21 18:50 020 3 gusting 8 27.2
2018-Jul-21 18:40 029 4 gusting 11 27.2
2018-Jul-21 18:30 035 6 gusting 12 27.8
2018-Jul-21 18:20 034 4 gusting 9 28.3
2018-Jul-21 18:10 025 4 gusting 9 28.9
2018-Jul-21 18:00 032 2 gusting 7 29.4
2018-Jul-21 17:50 309 1 gusting 5 29.4
2018-Jul-21 17:40 264 1 gusting 4 30.6
2018-Jul-21 17:30 227 0 gusting 4 31.1
2018-Jul-21 17:20 303 1 gusting 5 30.6
2018-Jul-21 17:10 050 0 gusting 12 30.6
2018-Jul-21 17:00 329 0 gusting 2 31.1
2018-Jul-21 16:50 328 2 gusting 5 30.0
2018-Jul-21 16:40 300 1 gusting 6 30.6
2018-Jul-21 16:30 255 2 gusting 6 30.6
2018-Jul-21 16:20 265 4 gusting 11 30.6
2018-Jul-21 16:10 250 3 gusting 6 30.0
2018-Jul-21 16:00 275 1 gusting 6 29.4
2018-Jul-21 15:50 251 3 gusting 10 30.0
2018-Jul-21 15:40 243 2 gusting 6 30.6
2018-Jul-21 15:30 078 0 gusting 3 30.0
2018-Jul-21 15:20 256 1 gusting 7 30.0
2018-Jul-21 15:10 031 2 gusting 6 30.0
2018-Jul-21 15:00 262 1 gusting 7 30.6
2018-Jul-21 14:50 054 1 gusting 6 28.9
2018-Jul-21 14:40 007 2 gusting 9 28.9
2018-Jul-21 14:30 257 1 gusting 8 29.4
2018-Jul-21 14:20 268 2 gusting 9 29.4
2018-Jul-21 14:10 117 0 gusting 5 29.4
2018-Jul-21 14:00 022 1 gusting 6 28.9
2018-Jul-21 13:50 272 1 gusting 8 28.3
2018-Jul-21 13:40 026 3 gusting 6 28.3
2018-Jul-21 13:30 316 1 gusting 6 28.3
2018-Jul-21 13:20 014 1 gusting 6 27.8
2018-Jul-21 13:10 318 1 gusting 6 27.8
2018-Jul-21 13:00 256 1 gusting 6 27.8
2018-Jul-21 12:50 299 1 gusting 6 27.2
2018-Jul-21 12:40 300 2 gusting 6 27.2
2018-Jul-21 12:30 322 3 gusting 6 26.7
2018-Jul-21 12:20 210 1 gusting 7 27.2
2018-Jul-21 12:10 253 3 gusting 6 27.8
2018-Jul-21 12:00 150 1 gusting 7 27.2
2018-Jul-21 11:50 201 1 gusting 4 27.8
2018-Jul-21 11:40 114 2 gusting 5 27.2
2018-Jul-21 11:30 240 0 gusting 4 27.2
2018-Jul-21 11:20 099 26.7
2018-Jul-21 11:10 259 1 gusting 6 26.1
2018-Jul-21 11:00 269 2 gusting 5 25.6
2018-Jul-21 10:50 294 1 gusting 4 25.6
2018-Jul-21 10:40 256 1 gusting 4 25.0
2018-Jul-21 10:30 206 1 gusting 3 25.0
2018-Jul-21 10:20 115 1 gusting 5 24.4
2018-Jul-21 10:10 102 5 gusting 7 23.9
2018-Jul-21 10:00 051 2 gusting 8 23.3
2018-Jul-21 09:50 038 1 gusting 7 23.3
2018-Jul-21 09:40 052 2 gusting 6 22.8
2018-Jul-21 09:30 024 3 gusting 8 22.8
2018-Jul-21 09:20 058 3 gusting 7 22.2
2018-Jul-21 09:10 062 2 gusting 8 22.2
2018-Jul-21 09:00 049 4 gusting 9 21.7
2018-Jul-21 08:50 059 5 gusting 10 21.1
2018-Jul-21 08:40 045 5 gusting 11 21.1
2018-Jul-21 08:30 057 4 gusting 9 20.6
2018-Jul-21 08:20 043 5 gusting 9 20.6
2018-Jul-21 08:10 047 6 gusting 11 20.0
2018-Jul-21 08:00 045 5 gusting 12 19.4
2018-Jul-21 07:50 044 5 gusting 12 19.4
2018-Jul-21 07:40 045 6 gusting 12 18.9
2018-Jul-21 07:30 036 5 gusting 9 18.9
2018-Jul-21 07:20 041 5 gusting 9 18.3
2018-Jul-21 07:10 042 5 gusting 8 18.3
2018-Jul-21 07:00 038 4 gusting 7 17.8
2018-Jul-21 06:50 037 4 gusting 7 17.8
2018-Jul-21 06:40 039 2 gusting 9 17.2
2018-Jul-21 06:30 058 3 gusting 8 17.2
2018-Jul-21 06:20 054 3 gusting 10 16.7
2018-Jul-21 06:10 043 6 gusting 12 16.7
2018-Jul-21 06:00 052 4 gusting 10 16.7
2018-Jul-21 05:50 048 6 gusting 11 16.7
2018-Jul-21 05:40 044 5 gusting 10 16.7
2018-Jul-21 05:30 050 6 gusting 13 16.7
2018-Jul-21 05:20 043 6 gusting 12 16.7
2018-Jul-21 05:10 044 6 gusting 10 16.7
2018-Jul-21 05:00 042 6 gusting 13 16.7
2018-Jul-21 04:50 043 6 gusting 11 16.7
2018-Jul-21 04:40 046 5 gusting 10 16.7
2018-Jul-21 04:30 045 6 gusting 10 16.7
2018-Jul-21 04:20 049 5 gusting 10 16.7
2018-Jul-21 04:10 046 6 gusting 10 17.2
2018-Jul-21 04:00 042 6 gusting 10 17.2
2018-Jul-21 03:50 044 6 gusting 11 17.2
2018-Jul-21 03:40 043 6 gusting 10 17.2
2018-Jul-21 03:30 047 6 gusting 10 17.2
2018-Jul-21 03:20 045 6 gusting 12 17.8
2018-Jul-21 03:10 047 6 gusting 12 17.8
2018-Jul-21 03:00 046 6 gusting 10 17.8
2018-Jul-21 02:50 040 6 gusting 13 17.8
2018-Jul-21 02:40 044 6 gusting 10 17.8
2018-Jul-21 02:30 043 6 gusting 11 17.8
2018-Jul-21 02:20 041 6 gusting 11 18.3
2018-Jul-21 02:10 043 6 gusting 11 18.3
2018-Jul-21 02:00 050 5 gusting 9 18.3
2018-Jul-21 01:50 047 5 gusting 11 18.3
2018-Jul-21 01:40 047 6 gusting 10 18.3
2018-Jul-21 01:30 045 6 gusting 11 18.3
2018-Jul-21 01:20 045 5 gusting 9 18.9
2018-Jul-21 01:10 048 5 gusting 8 18.9
2018-Jul-21 01:00 043 4 gusting 9 18.9
2018-Jul-21 00:50 055 3 gusting 9 18.9
2018-Jul-21 00:40 047 6 gusting 11 19.4
2018-Jul-21 00:30 046 6 gusting 11 19.4
2018-Jul-21 00:20 040 5 gusting 10 19.4
2018-Jul-21 00:10 044 5 gusting 7 19.4
2018-Jul-21 00:00 046 4 gusting 7 19.4
2018-Jul-20 23:50 044 4 gusting 8 19.4
2018-Jul-20 23:40 043 3 gusting 6 20.0
2018-Jul-20 23:30 045 3 gusting 7 20.0
2018-Jul-20 23:20 044 3 gusting 7 20.0
2018-Jul-20 23:10 044 3 gusting 7 20.0
2018-Jul-20 23:00 045 3 gusting 8 20.6
2018-Jul-20 22:50 043 5 gusting 8 20.6
2018-Jul-20 22:40 043 4 gusting 8 20.6
2018-Jul-20 22:30 048 6 gusting 9 20.6
2018-Jul-20 22:20 041 4 gusting 7 21.1
2018-Jul-20 22:10 045 4 gusting 8 21.1
2018-Jul-20 22:00 046 5 gusting 10 21.1
2018-Jul-20 21:50 048 5 gusting 9 21.7
2018-Jul-20 21:40 043 5 gusting 9 21.7
2018-Jul-20 21:30 046 5 gusting 10 21.7
2018-Jul-20 21:20 044 3 gusting 10 22.2
2018-Jul-20 21:10 044 4 gusting 8 22.2
2018-Jul-20 21:00 048 3 gusting 8 22.2
2018-Jul-20 20:50 045 5 gusting 9 22.8
2018-Jul-20 20:40 041 6 gusting 9 22.8
2018-Jul-20 20:30 043 5 gusting 12 22.8
2018-Jul-20 20:20 042 6 gusting 11 23.3
2018-Jul-20 20:10 039 6 gusting 14 23.3
2018-Jul-20 20:00 048 6 gusting 13 23.9
2018-Jul-20 19:50 018 5 gusting 11 24.4
2018-Jul-20 19:40 026 6 gusting 13 25.0
2018-Jul-20 19:30 037 7 gusting 16 25.0
2018-Jul-20 19:20 033 6 gusting 16 25.6
2018-Jul-20 19:10 032 7 gusting 16 26.1
2018-Jul-20 19:00 029 10 gusting 21 27.2
2018-Jul-20 18:50 345 2 gusting 5 28.9
2018-Jul-20 18:40 270 3 gusting 7 28.9
2018-Jul-20 18:30 261 3 gusting 8 28.9
2018-Jul-20 18:20 260 5 gusting 11 28.9
2018-Jul-20 18:10 295 4 gusting 9 28.9
2018-Jul-20 18:00 276 4 gusting 10 29.4
2018-Jul-20 17:50 264 5 gusting 12 29.4
2018-Jul-20 17:40 264 6 gusting 12 29.4
2018-Jul-20 17:30 264 6 gusting 14 29.4
2018-Jul-20 17:20 302 4 gusting 12 29.4
2018-Jul-20 17:10 296 4 gusting 11 29.4
2018-Jul-20 17:00 273 5 gusting 13 29.4
2018-Jul-20 16:50 299 5 gusting 13 29.4
2018-Jul-20 16:40 293 6 gusting 13 29.4
2018-Jul-20 16:30 293 5 gusting 14 30.0
2018-Jul-20 16:20 265 7 gusting 13 30.6
2018-Jul-20 16:10 267 6 gusting 13 30.0
2018-Jul-20 16:00 274 4 gusting 13 30.6
2018-Jul-20 15:50 271 5 gusting 13 30.6
2018-Jul-20 15:40 266 6 gusting 16 30.6
2018-Jul-20 15:30 255 6 gusting 14 30.6
2018-Jul-20 15:20 253 6 gusting 13 30.6
2018-Jul-20 15:10 256 6 gusting 16 30.6
2018-Jul-20 15:00 250 6 gusting 15 30.6
2018-Jul-20 14:50 256 5 gusting 14 30.6
2018-Jul-20 14:40 263 6 gusting 13 30.6
2018-Jul-20 14:30 264 8 gusting 19 30.6
2018-Jul-20 14:20 256 5 gusting 11 30.6
2018-Jul-20 14:10 256 6 gusting 13 30.6
2018-Jul-20 14:00 220 4 gusting 12 30.6
2018-Jul-20 13:50 247 4 gusting 12 30.6
2018-Jul-20 13:40 255 6 gusting 12 30.6
2018-Jul-20 13:30 257 6 gusting 12 30.6
2018-Jul-20 13:20 238 6 gusting 17 30.0
2018-Jul-20 13:10 262 5 gusting 12 30.6
2018-Jul-20 13:00 258 4 gusting 13 30.0
2018-Jul-20 12:50 258 6 gusting 14 30.0
2018-Jul-20 12:40 251 6 gusting 13 30.0
2018-Jul-20 12:30 235 4 gusting 13 30.0
2018-Jul-20 12:20 259 3 gusting 10 29.4
2018-Jul-20 12:10 225 2 gusting 8 30.0
2018-Jul-20 12:00 212 3 gusting 11 29.4
2018-Jul-20 11:50 246 3 gusting 9 28.9
2018-Jul-20 11:40 256 3 gusting 9 28.9
2018-Jul-20 11:30 250 3 gusting 11 28.3
2018-Jul-20 11:20 238 2 gusting 10 28.3
2018-Jul-20 11:10 254 2 gusting 7 27.8
2018-Jul-20 11:00 248 2 gusting 8 27.8
2018-Jul-20 10:50 266 1 gusting 9 27.8
2018-Jul-20 10:40 250 2 gusting 9 27.8
2018-Jul-20 10:30 264 2 gusting 7 27.2
2018-Jul-20 10:20 235 1 gusting 7 27.2
2018-Jul-20 10:10 258 3 gusting 8 26.7
2018-Jul-20 10:00 274 1 gusting 5 26.7
2018-Jul-20 09:50 241 1 gusting 6 26.7
2018-Jul-20 09:40 226 1 gusting 5 26.1
2018-Jul-20 09:30 205 0 gusting 5 25.6
2018-Jul-20 09:20 250 1 gusting 4 25.0
2018-Jul-20 09:10 131 0 gusting 3 25.0
2018-Jul-20 09:00 155 1 gusting 4 24.4
2018-Jul-20 08:50 263 23.9
2018-Jul-20 08:40 127 1 gusting 3 23.9
2018-Jul-20 08:30 168 23.3
2018-Jul-20 08:20 255 22.8
2018-Jul-20 08:10 256 0 gusting 3 22.8
2018-Jul-20 08:00 223 0 gusting 5 22.2
2018-Jul-20 07:50 232 0 gusting 3 22.2
2018-Jul-20 07:40 257 21.7
2018-Jul-20 07:30 257 1 gusting 3 21.7
2018-Jul-20 07:20 221 0 gusting 3 21.1
2018-Jul-20 07:10 207 0 gusting 3 21.7
2018-Jul-20 07:00 137 21.1
2018-Jul-20 06:50 118 0 gusting 2 20.6
2018-Jul-20 06:40 086 0 gusting 3 19.4
2018-Jul-20 06:30 094 19.4
2018-Jul-20 06:20 049 0 gusting 2 18.3
2018-Jul-20 06:10 057 18.3
2018-Jul-20 06:00 045 0 gusting 3 17.8
2018-Jul-20 05:50 047 1 gusting 3 18.3
2018-Jul-20 05:40 076 18.3
2018-Jul-20 05:30 233 18.3
2018-Jul-20 05:20 230 0 gusting 2 18.3
2018-Jul-20 05:10 229 0 gusting 3 18.3
2018-Jul-20 05:00 091 18.9
2018-Jul-20 04:50 240 18.9
2018-Jul-20 04:40 229 1 gusting 2 18.9
2018-Jul-20 04:30 223 18.9
2018-Jul-20 04:20 231 0 gusting 4 19.4
2018-Jul-20 04:10 226 1 gusting 4 19.4
2018-Jul-20 04:00 224 1 gusting 3 19.4
2018-Jul-20 03:50 225 1 gusting 2 19.4
2018-Jul-20 03:40 231 0 gusting 2 20.0
2018-Jul-20 03:30 228 1 gusting 2 20.0
2018-Jul-20 03:20 224 0 gusting 2 20.0
2018-Jul-20 03:10 225 0 gusting 1 20.0
2018-Jul-20 03:00 230 0 gusting 1 20.6
2018-Jul-20 02:50 228 0 gusting 1 20.6
2018-Jul-20 02:40 228 20.6
2018-Jul-20 02:30 229 20.6
2018-Jul-20 02:20 242 0 gusting 2 20.6
2018-Jul-20 02:10 242 1 gusting 3 20.6
2018-Jul-20 02:00 241 0 gusting 2 21.1
2018-Jul-20 01:50 238 0 gusting 3 21.1
2018-Jul-20 01:40 242 0 gusting 2 21.7
2018-Jul-20 01:30 243 0 gusting 2 21.7
2018-Jul-20 01:20 237 21.7
2018-Jul-20 01:10 238 1 gusting 4 21.7
2018-Jul-20 01:00 226 2 gusting 6 22.2
2018-Jul-20 00:50 221 2 gusting 6 22.2
2018-Jul-20 00:40 228 1 gusting 3 22.8
2018-Jul-20 00:30 233 0 gusting 1 22.8
2018-Jul-20 00:20 226 0 gusting 3 22.8
2018-Jul-20 00:10 227 23.3
2018-Jul-20 00:00 227 23.3
2018-Jul-19 23:50 227 23.9
2018-Jul-19 23:40 260 23.9
2018-Jul-19 23:30 283 24.4
2018-Jul-19 23:20 276 24.4
2018-Jul-19 23:10 266 25.0
2018-Jul-19 23:00 247 25.6
2018-Jul-19 22:50 257 1 gusting 6 25.6
2018-Jul-19 22:40 259 2 gusting 4 26.1
2018-Jul-19 22:30 257 1 gusting 5 26.1
2018-Jul-19 22:20 262 1 gusting 4 26.1
2018-Jul-19 22:10 258 1 gusting 4 26.1
2018-Jul-19 22:00 262 1 gusting 5 26.7
2018-Jul-19 21:50 259 2 gusting 6 26.7
2018-Jul-19 21:40 266 1 gusting 5 26.7
2018-Jul-19 21:30 261 1 gusting 4 27.2
2018-Jul-19 21:20 274 0 gusting 6 27.2
2018-Jul-19 21:10 280 2 gusting 6 27.2
2018-Jul-19 21:00 281 2 gusting 6 27.2